User: anonymous   Login
Location: Unspecified
(0.0000°N, 0.0000°E)
Time: 17:25:14
(UTC+00:00)
Language:

NOAA 15 - Orbit

View from above orbital plane
View from above orbital plane
View from above satellite
View from above satellite

Ground track
Ground track

The orbit data is extracted from the following two-line orbital elements,

1 25338U 98030A   17296.49520177  .00000021  00000-0  27898-4 0  9992
2 25338  98.7804 307.6536 0010368 188.8750 171.2248 14.25821991 11283
Epoch (UTC): 23 October 2017 11:53:05
Eccentricity: 0.0010368
inclination: 98.7804°
perigee height: 798 km
apogee height: 813 km
right ascension of ascending node: 307.6536°
argument of perigee: 188.8750°
revolutions per day: 14.25821991
mean anomaly at epoch: 171.2248°
orbit number at epoch: 1128

The dashed part of the orbit path shows where the satellite is in the earth's shadow,  

DLR